| time (UTC) | temp C | wind direction | speed KPH | gust KPH | rain 1hr cm | rain 24hr cm | rain mn cm | humidity % | barometer mb |
| 20260507031608 | 10 | 326 | 0.0 | 0.0 | 0.00 | 0.00 | 0.00 | 67 | 1020.4 |
| 20260507030006 | 11 | 326 | 0.0 | 0.0 | 0.00 | 0.00 | 0.00 | 65 | 1020.1 |
| 20260507024509 | 12 | 326 | 0.0 | 0.0 | 0.00 | 0.00 | 0.00 | 60 | 1019.8 |
| 20260507023005 | 13 | 326 | 0.0 | 0.0 | 0.00 | 0.00 | 0.00 | 57 | 1019.8 |
| 20260507021504 | 13 | 51 | 0.0 | 6.4 | 0.00 | 0.00 | 0.00 | 55 | 1019.5 |
| 20260507020004 | 14 | 32 | 1.6 | 6.4 | 0.00 | 0.00 | 0.00 | 53 | 1019.4 |
| 20260507014503 | 15 | 54 | 0.0 | 4.8 | 0.00 | 0.00 | 0.00 | 51 | 1019.2 |
| 20260507013008 | 15 | 101 | 4.8 | 12.9 | 0.00 | 0.00 | 0.00 | 49 | 1018.9 |
| 20260507011506 | 16 | 55 | 8.0 | 19.3 | 0.00 | 0.00 | 0.00 | 47 | 1018.7 |
| 20260507010002 | 16 | 60 | 6.4 | 19.3 | 0.00 | 0.00 | 0.00 | 47 | 1018.7 |
| 20260507004607 | 16 | 19 | 6.4 | 14.5 | 0.00 | 0.00 | 0.00 | 46 | 1018.6 |
| 20260507003100 | 16 | 46 | 4.8 | 17.7 | 0.00 | 0.00 | 0.00 | 47 | 1018.6 |
| 20260507001600 | 16 | 40 | 8.0 | 16.1 | 0.00 | 0.00 | 0.00 | 47 | 1018.5 |
| 20260507000101 | 17 | 352 | 6.4 | 14.5 | 0.00 | 0.00 | 0.00 | 47 | 1018.4 |
| 20260506234558 | 17 | 10 | 3.2 | 14.5 | 0.00 | 0.00 | 0.00 | 46 | 1018.3 |
| 20260506233111 | 17 | 98 | 8.0 | 14.5 | 0.00 | 0.00 | 0.00 | 45 | 1018.1 |
| 20260506231601 | 17 | 58 | 6.4 | 16.1 | 0.00 | 0.00 | 0.00 | 45 | 1018.0 |
| 20260506230057 | 18 | 27 | 6.4 | 14.5 | 0.00 | 0.00 | 0.00 | 45 | 1017.8 |
| 20260506224556 | 17 | 63 | 3.2 | 16.1 | 0.00 | 0.00 | 0.00 | 44 | 1017.6 |
| 20260506223055 | 18 | 349 | 4.8 | 16.1 | 0.00 | 0.00 | 0.00 | 46 | 1017.4 |
| 20260506221604 | 18 | 60 | 9.7 | 17.7 | 0.00 | 0.00 | 0.00 | 45 | 1017.3 |
| 20260506220054 | 18 | 49 | 3.2 | 12.9 | 0.00 | 0.00 | 0.00 | 47 | 1017.2 |
| 20260506214554 | 17 | 53 | 4.8 | 14.5 | 0.00 | 0.00 | 0.00 | 47 | 1017.4 |
| 20260506213109 | 17 | 4 | 9.7 | 20.9 | 0.00 | 0.00 | 0.00 | 46 | 1017.6 |
| 20260506211548 | 17 | 30 | 8.0 | 20.9 | 0.00 | 0.00 | 0.00 | 48 | 1017.8 |
| 20260506210046 | 17 | 52 | 4.8 | 19.3 | 0.00 | 0.00 | 0.00 | 50 | 1017.9 |
| 20260506204544 | 17 | 53 | 6.4 | 19.3 | 0.00 | 0.00 | 0.00 | 51 | 1018.1 |
| 20260506203043 | 17 | 9 | 8.0 | 22.5 | 0.00 | 0.00 | 0.00 | 51 | 1018.2 |
| 20260506201542 | 17 | 356 | 8.0 | 17.7 | 0.00 | 0.00 | 0.00 | 51 | 1018.4 |
| 20260506200039 | 16 | 39 | 4.8 | 22.5 | 0.00 | 0.00 | 0.00 | 53 | 1018.4 |
| 20260506194537 | 16 | 34 | 6.4 | 16.1 | 0.00 | 0.00 | 0.00 | 53 | 1018.6 |
| 20260506193036 | 16 | 21 | 9.7 | 16.1 | 0.00 | 0.00 | 0.00 | 53 | 1018.7 |
| 20260506191532 | 15 | 66 | 3.2 | 14.5 | 0.00 | 0.00 | 0.00 | 55 | 1018.9 |
| 20260506190032 | 15 | 49 | 9.7 | 20.9 | 0.00 | 0.00 | 0.00 | 54 | 1019.0 |
| 20260506184544 | 15 | 57 | 8.0 | 17.7 | 0.00 | 0.00 | 0.00 | 54 | 1019.0 |
| 20260506183038 | 15 | 53 | 9.7 | 20.9 | 0.00 | 0.00 | 0.00 | 55 | 1019.2 |
| 20260506181539 | 15 | 75 | 3.2 | 19.3 | 0.00 | 0.00 | 0.00 | 55 | 1019.4 |
| 20260506180033 | 15 | 36 | 1.6 | 19.3 | 0.00 | 0.00 | 0.00 | 55 | 1019.5 |
| 20260506174528 | 15 | 63 | 4.8 | 17.7 | 0.00 | 0.00 | 0.00 | 56 | 1019.5 |
| 20260506173026 | 15 | 50 | 8.0 | 19.3 | 0.00 | 0.00 | 0.00 | 55 | 1019.6 |
| 20260506171524 | 15 | 27 | 8.0 | 24.1 | 0.00 | 0.00 | 0.00 | 56 | 1019.7 |
| 20260506170023 | 15 | 5 | 6.4 | 20.9 | 0.00 | 0.00 | 0.00 | 56 | 1019.6 |
| 20260506164520 | 14 | 67 | 9.7 | 20.9 | 0.00 | 0.00 | 0.00 | 56 | 1019.6 |
| 20260506163018 | 14 | 38 | 11.3 | 22.5 | 0.00 | 0.00 | 0.00 | 56 | 1019.9 |
| 20260506161516 | 13 | 60 | 16.1 | 25.7 | 0.00 | 0.00 | 0.00 | 57 | 1019.9 |
| 20260506160011 | 13 | 58 | 8.0 | 19.3 | 0.00 | 0.00 | 0.00 | 59 | 1019.7 |
| 20260506154508 | 12 | 56 | 9.7 | 24.1 | 0.00 | 0.00 | 0.00 | 61 | 1019.8 |
| 20260506153012 | 12 | 84 | 8.0 | 27.4 | 0.00 | 0.00 | 0.00 | 64 | 1019.5 |
| 20260506151502 | 12 | 20 | 9.7 | 27.4 | 0.00 | 0.00 | 0.00 | 66 | 1019.6 |
| 20260506144557 | 11 | 348 | 9.7 | 20.9 | 0.00 | 0.00 | 0.00 | 73 | 1019.4 |
| 20260506143050 | 10 | 52 | 9.7 | 22.5 | 0.00 | 0.00 | 0.00 | 75 | 1018.9 |
| 20260506141548 | 10 | 21 | 6.4 | 22.5 | 0.00 | 0.00 | 0.00 | 75 | 1019.1 |
| 20260506140046 | 10 | 79 | 4.8 | 19.3 | 0.00 | 0.00 | 0.00 | 77 | 1019.1 |
| 20260506134544 | 10 | 344 | 6.4 | 20.9 | 0.00 | 0.00 | 0.00 | 79 | 1019.1 |
| 20260506133047 | 9 | 349 | 9.7 | 17.7 | 0.00 | 0.00 | 0.00 | 80 | 1019.2 |
| 20260506131551 | 9 | 23 | 4.8 | 16.1 | 0.00 | 0.00 | 0.00 | 81 | 1019.3 |
| 20260506130041 | 9 | 46 | 9.7 | 19.3 | 0.00 | 0.00 | 0.00 | 81 | 1019.0 |
| 20260506124539 | 9 | 80 | 9.7 | 19.3 | 0.00 | 0.00 | 0.00 | 81 | 1018.9 |
| 20260506123036 | 9 | 63 | 6.4 | 20.9 | 0.00 | 0.00 | 0.00 | 81 | 1018.5 |
| 20260506121534 | 9 | 72 | 4.8 | 24.1 | 0.00 | 0.00 | 0.00 | 82 | 1018.2 |
| 20260506120038 | 9 | 13 | 6.4 | 17.7 | 0.00 | 0.00 | 0.00 | 82 | 1017.7 |
| 20260506114531 | 8 | 75 | 3.2 | 14.5 | 0.00 | 0.00 | 0.00 | 82 | 1017.8 |
| 20260506113037 | 8 | 46 | 3.2 | 12.9 | 0.00 | 0.00 | 0.00 | 82 | 1017.5 |
| 20260506111528 | 8 | 49 | 3.2 | 14.5 | 0.00 | 0.00 | 0.00 | 82 | 1017.2 |
| 20260506110026 | 8 | 77 | 4.8 | 12.9 | 0.00 | 0.00 | 0.00 | 81 | 1017.2 |
| 20260506104524 | 9 | 54 | 3.2 | 12.9 | 0.00 | 0.00 | 0.00 | 80 | 1017.4 |
| 20260506103025 | 9 | 68 | 1.6 | 8.0 | 0.00 | 0.00 | 0.00 | 80 | 1018.3 |
| 20260506101518 | 9 | 55 | 1.6 | 9.7 | 0.00 | 0.00 | 0.00 | 79 | 1017.6 |
| 20260506100016 | 9 | 36 | 3.2 | 9.7 | 0.00 | 0.00 | 0.00 | 79 | 1017.7 |
| 20260506094514 | 9 | 58 | 4.8 | 11.3 | 0.00 | 0.00 | 0.00 | 79 | 1017.2 |
| 20260506093012 | 9 | 65 | 1.6 | 11.3 | 0.00 | 0.00 | 0.00 | 78 | 1016.6 |
| 20260506091510 | 9 | 40 | 3.2 | 9.7 | 0.00 | 0.00 | 0.00 | 77 | 1016.5 |
| 20260506090008 | 9 | 27 | 6.4 | 11.3 | 0.00 | 0.00 | 0.00 | 76 | 1016.1 |
| 20260506084506 | 9 | 71 | 6.4 | 16.1 | 0.00 | 0.00 | 0.00 | 75 | 1016.1 |
| 20260506083002 | 9 | 6 | 6.4 | 12.9 | 0.00 | 0.00 | 0.00 | 75 | 1015.9 |
| 20260506081602 | 9 | 45 | 3.2 | 12.9 | 0.00 | 0.00 | 0.00 | 74 | 1015.3 |
| 20260506080106 | 9 | 29 | 6.4 | 14.5 | 0.00 | 0.00 | 0.00 | 74 | 1015.3 |
| 20260506073053 | 9 | 29 | 4.8 | 12.9 | 0.00 | 0.00 | 0.00 | 73 | 1015.0 |
| 20260506071559 | 9 | 34 | 6.4 | 17.7 | 0.00 | 0.00 | 0.00 | 73 | 1014.7 |
| 20260506061544 | 10 | 23 | 4.8 | 11.3 | 0.00 | 0.00 | 0.00 | 72 | 1014.7 |
| 20260506044530 | 10 | 68 | 9.7 | 20.9 | 0.00 | 0.00 | 0.00 | 70 | 1014.3 |
| 20260506043027 | 10 | 42 | 6.4 | 16.1 | 0.00 | 0.00 | 0.00 | 71 | 1014.7 |
| 20260506041526 | 10 | 46 | 9.7 | 19.3 | 0.00 | 0.00 | 0.00 | 71 | 1014.6 |
| 20260506040025 | 10 | 87 | 8.0 | 24.1 | 0.00 | 0.00 | 0.00 | 72 | 1014.5 |
| 20260506034525 | 10 | 32 | 11.3 | 22.5 | 0.00 | 0.00 | 0.00 | 75 | 1014.3 |
| 20260506033019 | 9 | 32 | 4.8 | 16.1 | 0.00 | 0.00 | 0.00 | 79 | 1014.0 |